Wind_Speed
31 31 31 32 31 31 31 31 31 30 30 29 29 28 28 28 28 29 29 29 29 29 29 29 29 29 29 30 30 31 32 32 32 33 34 34 35 36 37 38 38 39 39
32 32 31 31 31 32 32 32 32 32 32 32 32 32 31 31 30 30 30 31 30 30 30 30 31 31 31 31 32 33 33 33 33 34 35 36 37 38 39 39 40 41 42
34 32 33 33 32 32 32 32 33 34 34 34 34 34 34 34 33 33 33 33 32 32 32 32 33 33 33 33 33 34 34 34 35 36 37 38 39 40 41 41 42 43 43
35 35 35 35 34 34 34 34 33 34 34 35 35 35 35 35 35 35 35 35 34 34 34 33 34 34 34 34 35 35 35 36 37 37 39 40 41 41 41 41 42 43 43
37 37 36 36 37 36 36 36 35 35 35 36 36 36 37 37 37 37 37 37 36 35 35 34 34 35 35 35 36 37 37 38 38 39 40 40 41 41 41 41 41 42 42
39 38 38 38 38 37 37 37 36 37 37 37 38 39 39 38 38 38 38 38 38 37 37 36 36 36 36 37 37 38 38 39 40 40 40 40 40 40 41 41 41 41 41
40 38 39 39 39 38 38 38 38 38 38 39 39 39 39 38 38 38 38 38 38 38 38 38 38 38 38 38 38 39 39 40 40 40 39 39 40 41 41 41 41 41 41
41 41 41 41 41 41 41 40 40 40 41 41 41 41 40 39 38 38 38 38 38 38 38 39 39 39 40 40 40 39 38 38 39 39 39 40 41 41 42 41 42 42 42
42 41 42 42 42 43 43 43 43 43 42 42 41 41 41 40 38 38 38 39 39 39 38 38 39 40 40 41 40 38 38 38 39 39 40 40 41 42 42 42 42 43 43
44 44 43 43 43 43 43 43 43 43 43 42 41 41 41 41 40 39 40 40 40 40 40 40 40 40 40 40 41 41 40 39 39 40 40 41 42 43 43 43 43 43 43
46 46 45 44 43 43 44 44 43 43 43 42 41 40 40 40 40 40 40 41 41 41 41 41 41 40 40 41 41 42 40 40 40 41 41 42 42 43 43 43 43 44 44
46 46 47 46 44 44 43 44 43 43 43 43 43 41 40 40 40 41 41 41 41 41 41 41 41 41 41 41 41 41 40 41 42 42 42 42 43 43 43 44 45 45 45
45 45 46 45 45 44 44 44 43 42 43 43 43 42 41 40 40 41 41 41 41 40 41 42 41 41 41 41 41 41 41 42 43 43 43 43 43 43 44 45 45 46 45
47 45 44 44 43 44 44 44 44 44 43 43 44 43 42 41 40 40 41 41 41 41 40 41 41 41 41 41 41 41 42 43 43 43 43 44 44 44 45 45 46 46 46
47 46 45 44 44 43 43 43 44 44 44 44 44 44 43 41 40 41 40 41 41 42 41 40 40 40 40 40 41 42 43 43 43 43 43 44 45 45 46 46 45 45 45
49 47 46 45 44 45 44 43 44 44 44 45 45 45 43 41 41 40 40 40 41 41 41 41 41 40 39 40 40 42 42 43 43 43 43 43 44 45 46 44 44 44 44
49 46 44 44 43 44 45 46 44 44 45 45 44 43 42 41 41 40 39 39 39 40 40 40 40 40 40 40 41 41 42 42 43 43 44 44 44 44 43 43 43 43 42
46 46 46 45 44 43 43 44 44 44 43 43 42 42 41 40 40 40 40 39 39 40 40 39 39 40 40 40 40 39 40 41 42 43 44 45 45 43 42 41 41 40 39
43 44 44 44 43 43 42 42 42 42 42 41 41 41 40 40 39 39 39 39 39 39 39 38 39 39 39 39 39 40 40 40 41 42 42 42 42 41 41 40 39 38 36
40 41 42 42 42 42 41 41 41 40 40 41 40 40 40 39 39 39 39 38 38 38 38 38 38 37 37 38 39 40 41 41 41 41 41 40 39 40 40 39 38 36 35
41 40 40 41 41 40 40 40 40 40 40 39 39 39 39 39 37 37 37 37 37 36 36 36 36 36 37 37 37 39 40 40 40 39 39 39 38 38 36 35 35 35 35
39 40 40 39 40 40 39 39 39 39 39 38 38 38 38 38 37 36 35 35 35 35 35 35 36 36 37 37 37 37 38 39 38 38 38 37 36 35 34 34 34 35 34
39 39 38 38 38 39 39 39 40 39 38 37 37 36 37 37 37 36 36 35 35 35 35 35 35 35 35 36 36 36 36 37 37 36 36 35 33 33 33 34 33 34 34
36 37 37 37 37 37 37 37 38 38 38 37 36 36 35 35 34 35 35 35 34 34 33 34 34 33 33 33 34 34 35 35 36 36 35 34 32 31 32 33 33 33 32
35 35 35 35 35 34 34 35 35 35 36 36 36 35 35 34 33 34 33 33 32 32 32 32 32 31 31 32 33 33 33 33 33 33 34 32 31 32 32 33 33 32 30
32 32 32 32 31 31 32 33 34 34 34 34 35 35 35 34 34 34 34 33 32 32 32 31 30 29 30 31 32 32 32 32 32 31 31 31 31 31 30 30 30 29 28
Wind_Direction
252 254 254 255 256 256 257 259 261 264 266 268 270 272 274 277 279 281 282 284 288 290 293 294 295 296 297 298 299 300 301 301 301 301 301 301 301 301 301 300 299 298 297
252 253 255 256 257 258 259 260 262 264 266 269 270 272 273 276 277 279 282 284 286 289 291 292 293 295 295 296 298 299 300 300 300 301 301 301 301 302 301 300 298 298 297
254 254 255 256 257 258 260 261 263 264 266 269 271 272 274 276 278 280 281 283 285 286 288 290 291 292 294 295 297 298 298 299 300 300 300 301 301 302 302 301 300 299 297
255 256 256 256 257 259 260 263 264 265 267 270 271 272 273 275 277 279 280 281 283 284 285 287 289 290 293 295 296 296 297 298 299 300 300 301 302 302 302 302 301 300 298
256 256 256 257 258 260 261 263 264 266 268 269 271 272 274 276 276 277 278 280 281 283 284 286 289 290 292 293 295 296 296 297 299 300 300 300 301 301 301 301 301 301 299
256 257 256 257 260 261 262 263 265 267 269 270 272 273 275 276 277 277 277 278 279 281 283 284 288 290 291 291 293 295 295 296 298 299 299 300 300 300 301 301 302 302 301
257 256 256 258 258 260 263 264 266 267 269 272 273 274 275 276 277 278 278 279 279 279 281 283 286 288 290 291 292 294 295 296 297 298 298 299 300 302 302 302 302 303 302
258 258 259 259 259 260 263 265 267 268 270 272 273 273 274 274 276 278 278 278 279 280 281 282 284 287 289 290 292 293 295 297 296 297 297 299 300 302 302 302 302 302 301
258 259 259 260 262 262 263 265 267 269 270 271 271 272 273 274 274 275 277 278 279 279 280 282 283 286 288 290 291 292 295 296 296 297 298 299 300 301 302 302 302 301 301
258 260 261 262 263 265 266 266 267 269 270 270 270 273 274 275 275 275 276 277 278 279 280 282 282 284 287 289 289 291 294 295 296 297 298 299 300 301 301 301 301 302 301
258 260 260 261 262 264 266 266 267 268 269 270 270 272 273 274 275 276 276 277 277 279 280 280 281 283 286 289 289 290 292 293 294 295 297 299 300 300 300 301 302 302 301
257 259 259 259 261 264 265 266 266 267 268 269 270 271 273 275 275 276 277 276 275 277 278 279 281 283 285 287 289 289 290 293 294 295 296 298 299 299 299 300 301 301 301
256 259 260 261 262 263 264 267 267 267 267 269 271 271 273 274 274 275 276 276 274 275 278 279 280 282 285 286 288 289 290 293 294 294 295 297 298 299 299 300 301 301 301
256 259 261 263 264 265 266 266 266 267 268 269 270 270 273 272 272 273 275 275 274 274 276 278 280 282 284 285 286 289 291 293 294 294 295 296 298 298 298 299 301 301 301
258 259 262 264 265 266 266 266 266 266 267 268 270 271 272 272 271 270 272 274 274 274 275 277 278 280 282 285 288 291 292 294 295 296 296 297 298 298 297 298 300 301 301
259 260 263 265 266 266 266 266 266 266 267 269 271 271 270 270 269 270 272 274 274 275 274 276 278 280 282 285 287 291 293 295 296 297 297 298 300 299 299 297 299 300 301
259 260 264 265 266 267 266 266 265 265 267 268 269 269 268 268 269 270 271 273 272 273 276 278 279 279 282 285 288 291 292 294 296 297 298 298 299 301 300 299 299 299 300
262 262 263 265 266 266 266 266 263 264 265 266 266 267 267 267 268 270 271 270 271 272 275 278 279 281 283 285 289 291 294 297 297 298 299 300 299 300 301 300 299 299 299
265 265 265 265 265 264 264 263 261 262 263 263 264 266 266 267 268 269 270 270 272 272 274 277 279 282 283 286 289 291 294 297 299 300 300 300 300 301 300 300 300 300 301
265 266 266 267 266 264 264 263 262 262 262 262 262 264 266 267 268 268 269 271 272 273 274 276 279 281 284 287 289 291 294 298 300 300 300 300 300 300 300 300 301 301 301
265 266 267 267 266 264 264 263 262 261 261 261 262 264 266 267 268 268 269 269 271 273 274 275 279 282 285 288 290 292 295 298 300 301 301 301 300 301 302 302 302 303 303
264 265 267 267 265 263 262 261 260 259 260 261 263 265 265 266 265 266 268 269 271 273 276 277 279 282 285 288 290 292 294 299 301 302 302 302 301 301 301 302 303 303 302
264 264 266 265 263 263 261 259 258 258 260 261 263 265 266 265 264 266 266 267 270 273 277 278 279 282 286 288 290 293 296 299 302 302 303 303 303 301 302 304 304 304 303
263 262 264 263 262 260 259 258 257 259 260 261 262 264 265 265 264 265 265 267 269 273 277 278 279 283 285 288 291 294 297 300 302 303 304 305 304 304 305 305 306 306 305
264 262 261 261 259 257 257 258 258 259 261 261 262 263 263 263 263 264 265 266 268 271 275 277 278 282 285 289 292 296 298 301 303 305 306 305 305 305 305 306 307 308 308
264 263 263 262 260 258 257 258 257 257 258 260 262 262 262 262 262 261 263 264 266 269 273 276 278 282 286 289 294 296 298 301 303 304 306 306 305 305 306 308 309 309 309
Height
5809 5809 5810 5811 5812 5813 5813 5814 5814 5814 5814 5814 5813 5813 5812 5811 5809 5808 5806 5805 5803 5801 5799 5797 5795 5793 5790 5788 5785 5782 5779 5776 5773 5769 5766 5762 5758 5755 5751 5747 5743 5739 5736
5802 5802 5803 5804 5805 5806 5806 5807 5807 5807 5807 5807 5807 5806 5805 5804 5803 5801 5800 5798 5797 5795 5793 5791 5788 5786 5783 5781 5778 5775 5772 5769 5765 5762 5758 5754 5750 5746 5742 5738 5734 5730 5726
5794 5795 5796 5797 5798 5798 5799 5799 5800 5800 5800 5799 5799 5799 5798 5797 5796 5794 5793 5791 5790 5788 5786 5784 5781 5779 5776 5774 5771 5768 5765 5761 5758 5754 5750 5746 5742 5738 5733 5729 5725 5720 5716
5787 5788 5789 5789 5790 5791 5791 5792 5792 5792 5792 5791 5791 5790 5789 5789 5788 5786 5785 5783 5782 5781 5779 5776 5774 5772 5769 5766 5764 5760 5757 5753 5750 5746 5742 5738 5733 5728 5724 5720 5715 5710 5706
5779 5780 5781 5782 5782 5783 5783 5784 5784 5784 5783 5782 5782 5781 5781 5780 5778 5777 5776 5775 5774 5772 5770 5768 5766 5763 5761 5758 5755 5752 5749 5745 5741 5737 5733 5729 5724 5720 5715 5710 5705 5700 5696
5770 5772 5773 5773 5774 5774 5775 5775 5775 5775 5774 5773 5772 5771 5771 5770 5768 5767 5766 5765 5764 5763 5761 5760 5757 5755 5753 5750 5747 5744 5740 5737 5733 5728 5724 5720 5715 5711 5706 5701 5696 5691 5686
5762 5763 5764 5764 5765 5766 5766 5766 5766 5766 5765 5764 5762 5761 5760 5760 5759 5757 5756 5755 5754 5753 5752 5750 5749 5747 5744 5741 5738 5735 5732 5728 5724 5719 5715 5711 5706 5702 5697 5692 5687 5682 5677
5753 5754 5755 5755 5756 5757 5757 5757 5757 5756 5756 5754 5753 5751 5751 5752 5750 5749 5747 5746 5744 5743 5743 5741 5740 5737 5735 5732 5729 5726 5722 5718 5715 5710 5706 5702 5698 5693 5688 5683 5678 5672 5667
5743 5744 5745 5746 5747 5747 5748 5748 5747 5747 5746 5745 5743 5742 5742 5742 5741 5740 5738 5737 5735 5734 5733 5731 5730 5728 5725 5723 5720 5717 5713 5709 5705 5701 5697 5693 5688 5683 5678 5673 5668 5663 5658
5733 5735 5736 5736 5737 5737 5737 5737 5737 5737 5736 5735 5734 5733 5732 5731 5731 5730 5729 5727 5726 5724 5723 5721 5720 5718 5716 5713 5711 5708 5704 5700 5696 5692 5688 5684 5679 5674 5669 5664 5658 5653 5648
5723 5724 5726 5726 5727 5727 5727 5727 5726 5726 5726 5725 5725 5724 5723 5722 5721 5720 5720 5718 5716 5715 5713 5712 5710 5708 5706 5704 5701 5698 5695 5691 5687 5683 5679 5674 5670 5664 5659 5654 5649 5644 5638
5712 5713 5714 5715 5716 5716 5717 5716 5716 5716 5715 5715 5715 5714 5714 5713 5712 5710 5709 5708 5706 5705 5704 5702 5701 5699 5697 5694 5691 5688 5685 5681 5678 5674 5669 5664 5660 5654 5649 5644 5639 5634 5628
5701 5702 5703 5704 5705 5705 5705 5705 5705 5705 5705 5705 5705 5704 5703 5703 5702 5700 5699 5698 5697 5696 5695 5693 5691 5689 5687 5684 5682 5679 5675 5672 5668 5664 5659 5655 5650 5644 5639 5634 5629 5623 5617
5689 5691 5691 5692 5693 5694 5694 5694 5694 5694 5694 5694 5694 5693 5693 5692 5692 5690 5689 5688 5687 5686 5685 5684 5682 5680 5678 5675 5672 5669 5665 5662 5658 5653 5649 5644 5639 5634 5629 5624 5618 5612 5607
5677 5678 5679 5680 5682 5682 5682 5682 5683 5683 5683 5683 5683 5683 5682 5682 5681 5680 5679 5678 5678 5676 5676 5674 5672 5671 5668 5666 5663 5659 5655 5651 5647 5643 5638 5634 5629 5624 5618 5613 5607 5602 5596
5664 5666 5667 5668 5669 5671 5671 5671 5671 5671 5671 5672 5671 5671 5671 5671 5670 5670 5669 5668 5667 5666 5665 5664 5663 5661 5659 5656 5653 5649 5646 5642 5638 5633 5628 5623 5618 5613 5607 5602 5597 5591 5586
5651 5653 5655 5656 5657 5658 5659 5659 5660 5660 5660 5660 5660 5660 5660 5660 5660 5659 5659 5658 5657 5656 5655 5655 5653 5651 5649 5647 5644 5640 5636 5632 5628 5623 5618 5612 5607 5602 5597 5592 5586 5581 5576
5638 5640 5642 5643 5645 5646 5646 5647 5648 5648 5648 5649 5649 5649 5649 5649 5649 5649 5648 5648 5647 5646 5645 5644 5643 5641 5639 5637 5634 5631 5627 5622 5618 5613 5608 5602 5597 5592 5587 5582 5576 5571 5566
5626 5628 5630 5631 5632 5633 5634 5635 5635 5636 5637 5638 5638 5638 5638 5639 5639 5638 5638 5637 5637 5636 5635 5634 5633 5631 5629 5627 5624 5621 5617 5613 5608 5603 5598 5592 5587 5582 5576 5571 5566 5561 5556
5615 5617 5618 5619 5620 5621 5622 5623 5624 5625 5626 5627 5627 5627 5628 5628 5628 5628 5628 5628 5627 5626 5626 5625 5624 5622 5620 5618 5615 5612 5608 5603 5598 5594 5588 5583 5577 5572 5567 5562 5557 5552 5548
5604 5605 5606 5608 5609 5610 5611 5612 5613 5614 5615 5616 5617 5617 5618 5618 5618 5618 5618 5618 5618 5617 5616 5615 5614 5613 5611 5608 5606 5602 5599 5594 5590 5584 5579 5574 5568 5563 5558 5553 5548 5543 5539
5594 5595 5595 5596 5597 5598 5599 5600 5601 5603 5604 5606 5607 5607 5608 5608 5608 5608 5608 5608 5608 5607 5607 5606 5605 5603 5602 5599 5597 5593 5589 5586 5581 5577 5570 5565 5559 5554 5549 5544 5539 5534 5530
5583 5584 5585 5586 5586 5587 5589 5590 5590 5592 5594 5595 5596 5597 5598 5598 5598 5599 5599 5599 5599 5598 5597 5596 5595 5594 5592 5591 5588 5584 5580 5576 5571 5566 5561 5556 5551 5546 5541 5536 5531 5526 5521
5573 5573 5574 5575 5576 5577 5578 5579 5580 5582 5583 5585 5586 5587 5588 5588 5588 5589 5589 5589 5589 5589 5588 5588 5587 5585 5583 5580 5578 5575 5571 5567 5563 5557 5552 5548 5543 5538 5533 5528 5523 5518 5513
5563 5563 5564 5565 5566 5567 5568 5569 5571 5572 5573 5575 5576 5577 5578 5579 5579 5579 5580 5580 5580 5580 5579 5578 5578 5576 5574 5572 5569 5566 5563 5560 5556 5550 5545 5541 5536 5531 5526 5521 5516 5510 5506
5553 5554 5555 5555 5556 5557 5559 5560 5561 5563 5564 5565 5566 5567 5568 5569 5570 5570 5570 5571 5571 5571 5571 5570 5569 5568 5566 5564 5561 5559 5556 5552 5548 5544 5539 5534 5529 5524 5521 5515 5510 5505 5500